Year,Month,Day,Hour,Minute,Value (Times are PST for temperature in C)
2015,08,23,00,00,13.70
2015,08,23,00,01,13.60
2015,08,23,00,02,13.60
2015,08,23,00,03,13.60
2015,08,23,00,04,13.60
2015,08,23,00,05,13.50
2015,08,23,00,06,13.50
2015,08,23,00,07,13.40
2015,08,23,00,08,13.40
2015,08,23,00,09,13.40
2015,08,23,00,10,13.40
2015,08,23,00,11,13.30
2015,08,23,00,12,13.30
2015,08,23,00,13,13.30
2015,08,23,00,14,13.30
2015,08,23,00,15,13.20
2015,08,23,00,16,13.20
2015,08,23,00,17,13.20
2015,08,23,00,18,13.20
2015,08,23,00,19,13.20
2015,08,23,00,20,13.10
2015,08,23,00,21,13.10
2015,08,23,00,22,13.10
2015,08,23,00,23,13.10
2015,08,23,00,24,13.00
2015,08,23,00,25,13.00
2015,08,23,00,26,13.00
2015,08,23,00,27,12.90
2015,08,23,00,28,12.90
2015,08,23,00,29,12.90
2015,08,23,00,30,12.90
2015,08,23,00,31,12.90
2015,08,23,00,32,12.80
2015,08,23,00,33,12.80
2015,08,23,00,34,12.80
2015,08,23,00,35,12.80
2015,08,23,00,36,12.80
2015,08,23,00,37,12.70
2015,08,23,00,38,12.70
2015,08,23,00,39,12.70
2015,08,23,00,40,12.70
2015,08,23,00,41,12.60
2015,08,23,00,42,12.60
2015,08,23,00,43,12.60
2015,08,23,00,44,12.60
2015,08,23,00,45,12.60
2015,08,23,00,46,12.50
2015,08,23,00,47,12.50
2015,08,23,00,48,12.50
2015,08,23,00,49,12.40
2015,08,23,00,50,12.40
2015,08,23,00,51,12.40
2015,08,23,00,52,12.40
2015,08,23,00,53,12.40
2015,08,23,00,54,12.30
2015,08,23,00,55,12.30
2015,08,23,00,56,12.30
2015,08,23,00,57,12.30
2015,08,23,00,58,12.30
2015,08,23,00,59,12.30
2015,08,23,01,00,12.30
2015,08,23,01,01,12.30
2015,08,23,01,02,12.30
2015,08,23,01,03,12.30
2015,08,23,01,04,12.30
2015,08,23,01,05,12.30
2015,08,23,01,06,12.30
2015,08,23,01,07,12.30
2015,08,23,01,08,12.20
2015,08,23,01,09,12.20
2015,08,23,01,10,12.20
2015,08,23,01,11,12.20
2015,08,23,01,12,12.20
2015,08,23,01,13,12.20
2015,08,23,01,14,12.10
2015,08,23,01,15,12.10
2015,08,23,01,16,12.10
2015,08,23,01,17,12.10
2015,08,23,01,18,12.10
2015,08,23,01,19,12.10
2015,08,23,01,20,12.10
2015,08,23,01,21,12.10
2015,08,23,01,22,12.10
2015,08,23,01,23,12.10
2015,08,23,01,24,12.10
2015,08,23,01,25,12.10
2015,08,23,01,26,12.10
2015,08,23,01,27,12.00
2015,08,23,01,28,12.00
2015,08,23,01,29,12.00
2015,08,23,01,30,12.00
2015,08,23,01,31,11.90
2015,08,23,01,32,11.90
2015,08,23,01,33,11.90
2015,08,23,01,34,11.90
2015,08,23,01,35,11.90
2015,08,23,01,36,11.80
2015,08,23,01,37,11.80
2015,08,23,01,38,11.80
2015,08,23,01,39,11.80
2015,08,23,01,40,11.80
2015,08,23,01,41,11.80
2015,08,23,01,42,11.70
2015,08,23,01,43,11.70
2015,08,23,01,44,11.70
2015,08,23,01,45,11.70
2015,08,23,01,46,11.70
2015,08,23,01,47,11.70
2015,08,23,01,48,11.70
2015,08,23,01,49,11.70
2015,08,23,01,50,11.70
2015,08,23,01,51,11.70
2015,08,23,01,52,11.70
2015,08,23,01,53,11.70
2015,08,23,01,54,11.70
2015,08,23,01,55,11.70
2015,08,23,01,56,11.70
2015,08,23,01,57,11.70
2015,08,23,01,58,11.70
2015,08,23,01,59,11.70
2015,08,23,02,00,11.60
2015,08,23,02,01,11.60
2015,08,23,02,02,11.60
2015,08,23,02,03,11.60
2015,08,23,02,04,11.60
2015,08,23,02,05,11.60
2015,08,23,02,06,11.60
2015,08,23,02,07,11.60
2015,08,23,02,08,11.60
2015,08,23,02,09,11.50
2015,08,23,02,10,11.50
2015,08,23,02,11,11.50
2015,08,23,02,12,11.50
2015,08,23,02,13,11.50
2015,08,23,02,14,11.40
2015,08,23,02,15,11.40
2015,08,23,02,16,11.40
2015,08,23,02,17,11.40
2015,08,23,02,18,11.40
2015,08,23,02,19,11.40
2015,08,23,02,20,11.40
2015,08,23,02,21,11.40
2015,08,23,02,22,11.40
2015,08,23,02,23,11.30
2015,08,23,02,24,11.30
2015,08,23,02,25,11.30
2015,08,23,02,26,11.30
2015,08,23,02,27,11.30
2015,08,23,02,28,11.30
2015,08,23,02,29,11.30
2015,08,23,02,30,11.20
2015,08,23,02,31,11.20
2015,08,23,02,32,11.20
2015,08,23,02,33,11.20
2015,08,23,02,34,11.20
2015,08,23,02,35,11.20
2015,08,23,02,36,11.10
2015,08,23,02,37,11.10
2015,08,23,02,38,11.10
2015,08,23,02,39,11.10
2015,08,23,02,40,11.00
2015,08,23,02,41,11.00
2015,08,23,02,42,11.00
2015,08,23,02,43,11.00
2015,08,23,02,44,10.90
2015,08,23,02,45,10.90
2015,08,23,02,46,10.90
2015,08,23,02,47,10.90
2015,08,23,02,48,10.90
2015,08,23,02,49,10.90
2015,08,23,02,50,10.90
2015,08,23,02,51,10.90
2015,08,23,02,52,10.90
2015,08,23,02,53,10.90
2015,08,23,02,54,10.90
2015,08,23,02,55,10.90
2015,08,23,02,56,11.00
2015,08,23,02,57,11.00
2015,08,23,02,58,11.00
2015,08,23,02,59,11.00
2015,08,23,03,00,11.00
2015,08,23,03,01,11.00
2015,08,23,03,02,11.00
2015,08,23,03,03,11.00
2015,08,23,03,04,10.90
2015,08,23,03,05,10.90
2015,08,23,03,06,10.90
2015,08,23,03,07,10.90
2015,08,23,03,08,10.90
2015,08,23,03,09,10.90
2015,08,23,03,10,10.90
2015,08,23,03,11,10.90
2015,08,23,03,12,10.90
2015,08,23,03,13,10.90
2015,08,23,03,14,10.90
2015,08,23,03,15,10.90
2015,08,23,03,16,10.90
2015,08,23,03,17,10.90
2015,08,23,03,18,10.90
2015,08,23,03,19,10.80
2015,08,23,03,20,10.80
2015,08,23,03,21,10.80
2015,08,23,03,22,10.80
2015,08,23,03,23,10.80
2015,08,23,03,24,10.80
2015,08,23,03,25,10.80
2015,08,23,03,26,10.80
2015,08,23,03,27,10.70
2015,08,23,03,28,10.70
2015,08,23,03,29,10.70
2015,08,23,03,30,10.70
2015,08,23,03,31,10.70
2015,08,23,03,32,10.70
2015,08,23,03,33,10.70
2015,08,23,03,34,10.70
2015,08,23,03,35,10.60
2015,08,23,03,36,10.60
2015,08,23,03,37,10.60
2015,08,23,03,38,10.60
2015,08,23,03,39,10.60
2015,08,23,03,40,10.60
2015,08,23,03,41,10.60
2015,08,23,03,42,10.60
2015,08,23,03,43,10.60
2015,08,23,03,44,10.60
2015,08,23,03,45,10.60
2015,08,23,03,46,10.60
2015,08,23,03,47,10.60
2015,08,23,03,48,10.60
2015,08,23,03,49,10.60
2015,08,23,03,50,10.60
2015,08,23,03,51,10.60
2015,08,23,03,52,10.60
2015,08,23,03,53,10.60
2015,08,23,03,54,10.60
2015,08,23,03,55,10.60
2015,08,23,03,56,10.60
2015,08,23,03,57,10.60
2015,08,23,03,58,10.60
2015,08,23,03,59,10.60
2015,08,23,04,00,10.60
2015,08,23,04,01,10.60
2015,08,23,04,02,10.60
2015,08,23,04,03,10.60
2015,08,23,04,04,10.60
2015,08,23,04,05,10.50
2015,08,23,04,06,10.50
2015,08,23,04,07,10.50
2015,08,23,04,08,10.40
2015,08,23,04,09,10.40
2015,08,23,04,10,10.40
2015,08,23,04,11,10.40
2015,08,23,04,12,10.40
2015,08,23,04,13,10.40
2015,08,23,04,14,10.40
2015,08,23,04,15,10.40
2015,08,23,04,16,10.40
2015,08,23,04,17,10.40
2015,08,23,04,18,10.30
2015,08,23,04,19,10.30
2015,08,23,04,20,10.30
2015,08,23,04,21,10.30
2015,08,23,04,22,10.30
2015,08,23,04,23,10.30
2015,08,23,04,24,10.30
2015,08,23,04,25,10.30
2015,08,23,04,26,10.30
2015,08,23,04,27,10.30
2015,08,23,04,28,10.30
2015,08,23,04,29,10.30
2015,08,23,04,30,10.30
2015,08,23,04,31,10.30
2015,08,23,04,32,10.30
2015,08,23,04,33,10.30
2015,08,23,04,34,10.30
2015,08,23,04,35,10.30
2015,08,23,04,36,10.30
2015,08,23,04,37,10.30
2015,08,23,04,38,10.30
2015,08,23,04,39,10.30
2015,08,23,04,40,10.30
2015,08,23,04,41,10.30
2015,08,23,04,42,10.30
2015,08,23,04,43,10.30
2015,08,23,04,44,10.30
2015,08,23,04,45,10.30
2015,08,23,04,46,10.30
2015,08,23,04,47,10.30
2015,08,23,04,48,10.30
2015,08,23,04,49,10.30
2015,08,23,04,50,10.30
2015,08,23,04,51,10.30
2015,08,23,04,52,10.30
2015,08,23,04,53,10.30
2015,08,23,04,54,10.30
2015,08,23,04,55,10.30
2015,08,23,04,56,10.30
2015,08,23,04,57,10.40
2015,08,23,04,58,10.40
2015,08,23,04,59,10.40
2015,08,23,05,00,10.40
2015,08,23,05,01,10.40
2015,08,23,05,02,10.40
2015,08,23,05,03,10.40
2015,08,23,05,04,10.40
2015,08,23,05,05,10.40
2015,08,23,05,06,10.40
2015,08,23,05,07,10.40
2015,08,23,05,08,10.40
2015,08,23,05,09,10.50
2015,08,23,05,10,10.50
2015,08,23,05,11,10.50
2015,08,23,05,12,10.50
2015,08,23,05,13,10.50
2015,08,23,05,14,10.50
2015,08,23,05,15,10.50
2015,08,23,05,16,10.50
2015,08,23,05,17,10.50
2015,08,23,05,18,10.50
2015,08,23,05,19,10.50
2015,08,23,05,20,10.50
2015,08,23,05,21,10.50
2015,08,23,05,22,10.50
2015,08,23,05,23,10.50
2015,08,23,05,24,10.50
2015,08,23,05,25,10.50
2015,08,23,05,26,10.50
2015,08,23,05,27,10.50
2015,08,23,05,28,10.40
2015,08,23,05,29,10.40
2015,08,23,05,30,10.40
2015,08,23,05,31,10.40
2015,08,23,05,32,10.40
2015,08,23,05,33,10.40
2015,08,23,05,34,10.40
2015,08,23,05,35,10.40
2015,08,23,05,36,10.40
2015,08,23,05,37,10.30
2015,08,23,05,38,10.30
2015,08,23,05,39,10.30
2015,08,23,05,40,10.30
2015,08,23,05,41,10.20
2015,08,23,05,42,10.20
2015,08,23,05,43,10.20
2015,08,23,05,44,10.20
2015,08,23,05,45,10.20
2015,08,23,05,46,10.20
2015,08,23,05,47,10.20
2015,08,23,05,48,10.20
2015,08,23,05,49,10.10
2015,08,23,05,50,10.10
2015,08,23,05,51,10.10
2015,08,23,05,52,10.10
2015,08,23,05,53,10.10
2015,08,23,05,54,10.10
2015,08,23,05,55,10.10
2015,08,23,05,56,10.10
2015,08,23,05,57,10.10
2015,08,23,05,58,10.10
2015,08,23,05,59,10.10
2015,08,23,06,00,10.10
2015,08,23,06,01,10.10
2015,08,23,06,02,10.10
2015,08,23,06,03,10.10
2015,08,23,06,04,10.10
2015,08,23,06,05,10.10
2015,08,23,06,06,10.10
2015,08,23,06,07,10.00
2015,08,23,06,08,10.00
2015,08,23,06,09,10.00
2015,08,23,06,10,10.00
2015,08,23,06,11,10.00
2015,08,23,06,12,10.00
2015,08,23,06,13,10.10
2015,08,23,06,14,10.00
2015,08,23,06,15,10.00
2015,08,23,06,16,10.00
2015,08,23,06,17,10.00
2015,08,23,06,18,10.00
2015,08,23,06,19,10.00
2015,08,23,06,20,10.00
2015,08,23,06,21,10.00
2015,08,23,06,22,10.00
2015,08,23,06,23,10.00
2015,08,23,06,24,10.00
2015,08,23,06,25,10.00
2015,08,23,06,26,10.00
2015,08,23,06,27,10.00
2015,08,23,06,28,9.90
2015,08,23,06,29,9.90
2015,08,23,06,30,9.90
2015,08,23,06,31,9.90
2015,08,23,06,32,9.90
2015,08,23,06,33,9.90
2015,08,23,06,34,9.90
2015,08,23,06,35,9.90
2015,08,23,06,36,9.90
2015,08,23,06,37,9.90
2015,08,23,06,38,9.90
2015,08,23,06,39,9.90
2015,08,23,06,40,9.90
2015,08,23,06,41,9.90
2015,08,23,06,42,9.90
2015,08,23,06,43,9.90
2015,08,23,06,44,9.90
2015,08,23,06,45,10.00
2015,08,23,06,46,10.00
2015,08,23,06,47,10.00
2015,08,23,06,48,10.10
2015,08,23,06,49,10.10
2015,08,23,06,50,10.10
2015,08,23,06,51,10.10
2015,08,23,06,52,10.10
2015,08,23,06,53,10.20
2015,08,23,06,54,10.20
2015,08,23,06,55,10.20
2015,08,23,06,56,10.20
2015,08,23,06,57,10.20
2015,08,23,06,58,10.20
2015,08,23,06,59,10.20
2015,08,23,07,00,10.30
2015,08,23,07,01,10.30
2015,08,23,07,02,10.30
2015,08,23,07,03,10.30
2015,08,23,07,04,10.30
2015,08,23,07,05,10.30
2015,08,23,07,06,10.30
2015,08,23,07,07,10.30
2015,08,23,07,08,10.30
2015,08,23,07,09,10.30
2015,08,23,07,10,10.30
2015,08,23,07,11,10.30
2015,08,23,07,12,10.30
2015,08,23,07,13,10.40
2015,08,23,07,14,10.30
2015,08,23,07,15,10.40
2015,08,23,07,16,10.40
2015,08,23,07,17,10.40
2015,08,23,07,18,10.40
2015,08,23,07,19,10.40
2015,08,23,07,20,10.40
2015,08,23,07,21,10.40
2015,08,23,07,22,10.50
2015,08,23,07,23,10.50
2015,08,23,07,24,10.50
2015,08,23,07,25,10.50
2015,08,23,07,26,10.60
2015,08,23,07,27,10.60
2015,08,23,07,28,10.60
2015,08,23,07,29,10.60
2015,08,23,07,30,10.60
2015,08,23,07,31,10.60
2015,08,23,07,32,10.60
2015,08,23,07,33,10.70
2015,08,23,07,34,10.70
2015,08,23,07,35,10.70
2015,08,23,07,36,10.80
2015,08,23,07,37,10.80
2015,08,23,07,38,10.80
2015,08,23,07,39,10.90
2015,08,23,07,40,10.90
2015,08,23,07,41,10.90
2015,08,23,07,42,10.90
2015,08,23,07,43,11.00
2015,08,23,07,44,11.00
2015,08,23,07,45,11.10
2015,08,23,07,46,11.10
2015,08,23,07,47,11.20
2015,08,23,07,48,11.20
2015,08,23,07,49,11.30
2015,08,23,07,50,11.30
2015,08,23,07,51,11.40
2015,08,23,07,52,11.40
2015,08,23,07,53,11.50
2015,08,23,07,54,11.60
2015,08,23,07,55,11.60
2015,08,23,07,56,11.70
2015,08,23,07,57,11.70
2015,08,23,07,58,11.80
2015,08,23,07,59,11.90
2015,08,23,08,00,11.90
2015,08,23,08,01,12.00
2015,08,23,08,02,12.10
2015,08,23,08,03,12.20
2015,08,23,08,04,12.20
2015,08,23,08,05,12.30
2015,08,23,08,06,12.40
2015,08,23,08,07,12.40
2015,08,23,08,08,12.50
2015,08,23,08,09,12.50
2015,08,23,08,10,12.60
2015,08,23,08,11,12.60
2015,08,23,08,12,12.70
2015,08,23,08,13,12.70
2015,08,23,08,14,12.80
2015,08,23,08,15,12.90
2015,08,23,08,16,12.90
2015,08,23,08,17,13.00
2015,08,23,08,18,13.10
2015,08,23,08,19,13.10
2015,08,23,08,20,13.20
2015,08,23,08,21,13.30
2015,08,23,08,22,13.50
2015,08,23,08,23,13.60
2015,08,23,08,24,13.70
2015,08,23,08,25,13.80
2015,08,23,08,26,13.90
2015,08,23,08,27,14.00
2015,08,23,08,28,14.20
2015,08,23,08,29,14.30
2015,08,23,08,30,14.40
2015,08,23,08,31,14.60
2015,08,23,08,32,14.70
2015,08,23,08,33,14.80
2015,08,23,08,34,15.00
2015,08,23,08,35,15.10
2015,08,23,08,36,15.30
2015,08,23,08,37,15.40
2015,08,23,08,38,15.60
2015,08,23,08,39,15.70
2015,08,23,08,40,15.80
2015,08,23,08,41,16.00
2015,08,23,08,42,16.10
2015,08,23,08,43,16.20
2015,08,23,08,44,16.30
2015,08,23,08,45,16.40
2015,08,23,08,46,16.50
2015,08,23,08,47,16.60
2015,08,23,08,48,16.80
2015,08,23,08,49,16.90
2015,08,23,08,50,17.00
2015,08,23,08,51,17.10
2015,08,23,08,52,17.20
2015,08,23,08,53,17.30
2015,08,23,08,54,17.40
2015,08,23,08,55,17.50
2015,08,23,08,56,17.60
2015,08,23,08,57,17.70
2015,08,23,08,58,17.80
2015,08,23,08,59,17.90
2015,08,23,09,00,18.00
2015,08,23,09,01,18.10
2015,08,23,09,02,18.10
2015,08,23,09,03,18.20
2015,08,23,09,04,18.30
2015,08,23,09,05,18.30
2015,08,23,09,06,18.40
2015,08,23,09,07,18.40
2015,08,23,09,08,18.40
2015,08,23,09,09,18.50
2015,08,23,09,10,18.50
2015,08,23,09,11,18.60
2015,08,23,09,12,18.60
2015,08,23,09,13,18.60
2015,08,23,09,14,18.70
2015,08,23,09,15,18.70
2015,08,23,09,16,18.70
2015,08,23,09,17,18.70
2015,08,23,09,18,18.80
2015,08,23,09,19,18.80
2015,08,23,09,20,18.80
2015,08,23,09,21,18.90
2015,08,23,09,22,18.90
2015,08,23,09,23,18.90
2015,08,23,09,24,18.90
2015,08,23,09,25,19.00
2015,08,23,09,26,19.00
2015,08,23,09,27,19.00
2015,08,23,09,28,19.10
2015,08,23,09,29,19.10
2015,08,23,09,30,19.10
2015,08,23,09,31,19.20
2015,08,23,09,32,19.20
2015,08,23,09,33,19.20
2015,08,23,09,34,19.30
2015,08,23,09,35,19.30
2015,08,23,09,36,19.30
2015,08,23,09,37,19.30
2015,08,23,09,38,19.40
2015,08,23,09,39,19.50
2015,08,23,09,40,19.50
2015,08,23,09,41,19.60
2015,08,23,09,42,19.60
2015,08,23,09,43,19.60
2015,08,23,09,44,19.60
2015,08,23,09,45,19.50
2015,08,23,09,46,19.50
2015,08,23,09,47,19.40
2015,08,23,09,48,19.50
2015,08,23,09,49,19.50
2015,08,23,09,50,19.50
2015,08,23,09,51,19.50
2015,08,23,09,52,19.60
2015,08,23,09,53,19.60
2015,08,23,09,54,19.70
2015,08,23,09,55,19.80
2015,08,23,09,56,19.80
2015,08,23,09,57,19.80
2015,08,23,09,58,19.90
2015,08,23,09,59,19.80
2015,08,23,10,00,19.80
2015,08,23,10,01,19.80
2015,08,23,10,02,19.80
2015,08,23,10,03,19.80
2015,08,23,10,04,19.80
2015,08,23,10,05,19.80
2015,08,23,10,06,19.80
2015,08,23,10,07,19.90
2015,08,23,10,08,19.90
2015,08,23,10,09,19.90
2015,08,23,10,10,20.00
2015,08,23,10,11,20.00
2015,08,23,10,12,20.10
2015,08,23,10,13,20.20
2015,08,23,10,14,20.20
2015,08,23,10,15,20.30
2015,08,23,10,16,20.30
2015,08,23,10,17,20.30
2015,08,23,10,18,20.40
2015,08,23,10,19,20.40
2015,08,23,10,20,20.40
2015,08,23,10,21,20.50
2015,08,23,10,22,20.50
2015,08,23,10,23,20.50
2015,08,23,10,24,20.60
2015,08,23,10,25,20.60
2015,08,23,10,26,20.60
2015,08,23,10,27,20.60
2015,08,23,10,28,20.50
2015,08,23,10,29,20.50
2015,08,23,10,30,20.50
2015,08,23,10,31,20.60
2015,08,23,10,32,20.60
2015,08,23,10,33,20.60
2015,08,23,10,34,20.60
2015,08,23,10,35,20.70
2015,08,23,10,36,20.70
2015,08,23,10,37,20.70
2015,08,23,10,38,20.80
2015,08,23,10,39,20.80
2015,08,23,10,40,20.90
2015,08,23,10,41,20.90
2015,08,23,10,42,21.00
2015,08,23,10,43,21.10
2015,08,23,10,44,21.20
2015,08,23,10,45,21.40
2015,08,23,10,46,21.50
2015,08,23,10,47,21.60
2015,08,23,10,48,21.70
2015,08,23,10,49,21.80
2015,08,23,10,50,21.80
2015,08,23,10,51,21.90
2015,08,23,10,52,21.90
2015,08,23,10,53,22.00
2015,08,23,10,54,22.10
2015,08,23,10,55,22.20
2015,08,23,10,56,22.20
2015,08,23,10,57,22.30
2015,08,23,10,58,22.30
2015,08,23,10,59,22.30
2015,08,23,11,00,22.40
2015,08,23,11,01,22.40
2015,08,23,11,02,22.40
2015,08,23,11,03,22.50
2015,08,23,11,04,22.60
2015,08,23,11,05,22.70
2015,08,23,11,06,22.80
2015,08,23,11,07,22.80
2015,08,23,11,08,22.80
2015,08,23,11,09,22.80
2015,08,23,11,10,22.80
2015,08,23,11,11,22.80
2015,08,23,11,12,22.80
2015,08,23,11,13,22.80
2015,08,23,11,14,22.80
2015,08,23,11,15,22.80
2015,08,23,11,16,22.70
2015,08,23,11,17,22.70
2015,08,23,11,18,22.60
2015,08,23,11,19,22.60
2015,08,23,11,20,22.60
2015,08,23,11,21,22.70
2015,08,23,11,22,22.70
2015,08,23,11,23,22.80
2015,08,23,11,24,22.90
2015,08,23,11,25,22.90
2015,08,23,11,26,23.00
2015,08,23,11,27,23.10
2015,08,23,11,28,23.20
2015,08,23,11,29,23.30
2015,08,23,11,30,23.30
2015,08,23,11,31,23.40
2015,08,23,11,32,23.50
2015,08,23,11,33,23.50
2015,08,23,11,34,23.60
2015,08,23,11,35,23.60
2015,08,23,11,36,23.60
2015,08,23,11,37,23.60
2015,08,23,11,38,23.60
2015,08,23,11,39,23.60
2015,08,23,11,40,23.60
2015,08,23,11,41,23.60
2015,08,23,11,42,23.60
2015,08,23,11,43,23.60
2015,08,23,11,44,23.60
2015,08,23,11,45,23.60
2015,08,23,11,46,23.70
2015,08,23,11,47,23.80
2015,08,23,11,48,23.90
2015,08,23,11,49,24.00
2015,08,23,11,50,24.10
2015,08,23,11,51,24.20
2015,08,23,11,52,24.30
2015,08,23,11,53,24.30
2015,08,23,11,54,24.40
2015,08,23,11,55,24.40
2015,08,23,11,56,24.40
2015,08,23,11,57,24.30
2015,08,23,11,58,24.30
2015,08,23,11,59,24.30
2015,08,23,12,00,24.30
2015,08,23,12,01,24.30
2015,08,23,12,02,24.30
2015,08,23,12,03,24.20
2015,08,23,12,04,24.20
2015,08,23,12,05,24.20
2015,08,23,12,06,24.10
2015,08,23,12,07,24.10
2015,08,23,12,08,24.00
2015,08,23,12,09,24.00
2015,08,23,12,10,23.90
2015,08,23,12,11,23.90
2015,08,23,12,12,23.90
2015,08,23,12,13,23.90
2015,08,23,12,14,23.90
2015,08,23,12,15,23.90
2015,08,23,12,16,23.90
2015,08,23,12,17,23.90
2015,08,23,12,18,24.00
2015,08,23,12,19,24.00
2015,08,23,12,20,24.10
2015,08,23,12,21,24.10
2015,08,23,12,22,24.20
2015,08,23,12,23,24.20
2015,08,23,12,24,24.30
2015,08,23,12,25,24.40
2015,08,23,12,26,24.40
2015,08,23,12,27,24.50
2015,08,23,12,28,24.60
2015,08,23,12,29,24.70
2015,08,23,12,30,24.80
2015,08,23,12,31,24.90
2015,08,23,12,32,24.90
2015,08,23,12,33,25.00
2015,08,23,12,34,25.00
2015,08,23,12,35,25.00
2015,08,23,12,36,25.10
2015,08,23,12,37,25.10
2015,08,23,12,38,25.10
2015,08,23,12,39,25.10
2015,08,23,12,40,25.20
2015,08,23,12,41,25.20
2015,08,23,12,42,25.20
2015,08,23,12,43,25.20
2015,08,23,12,44,25.20
2015,08,23,12,45,25.20
2015,08,23,12,46,25.20
2015,08,23,12,47,25.20
2015,08,23,12,48,25.20
2015,08,23,12,49,25.20
2015,08,23,12,50,25.20
2015,08,23,12,51,25.30
2015,08,23,12,52,25.40
2015,08,23,12,53,25.50
2015,08,23,12,54,25.60
2015,08,23,12,55,25.80
2015,08,23,12,56,25.90
2015,08,23,12,57,26.10
2015,08,23,12,58,26.20
2015,08,23,12,59,26.30
2015,08,23,13,00,26.40
2015,08,23,13,01,26.40
2015,08,23,13,02,26.40
2015,08,23,13,03,26.40
2015,08,23,13,04,26.30
2015,08,23,13,05,26.10
2015,08,23,13,06,25.90
2015,08,23,13,07,25.80
2015,08,23,13,08,25.70
2015,08,23,13,09,25.70
2015,08,23,13,10,25.70
2015,08,23,13,11,25.70
2015,08,23,13,12,25.70
2015,08,23,13,13,25.80
2015,08,23,13,14,25.90
2015,08,23,13,15,26.00
2015,08,23,13,16,26.10
2015,08,23,13,17,26.10
2015,08,23,13,18,26.10
2015,08,23,13,19,26.20
2015,08,23,13,20,26.20
2015,08,23,13,21,26.20
2015,08,23,13,22,26.20
2015,08,23,13,23,26.20
2015,08,23,13,24,26.20
2015,08,23,13,25,26.30
2015,08,23,13,26,26.30
2015,08,23,13,27,26.40
2015,08,23,13,28,26.30
2015,08,23,13,29,26.30
2015,08,23,13,30,26.20
2015,08,23,13,31,26.20
2015,08,23,13,32,26.20
2015,08,23,13,33,26.00
2015,08,23,13,34,26.00
2015,08,23,13,35,25.90
2015,08,23,13,36,25.80
2015,08,23,13,37,25.60
2015,08,23,13,38,25.50
2015,08,23,13,39,25.40
2015,08,23,13,40,25.40
2015,08,23,13,41,25.40
2015,08,23,13,42,25.50
2015,08,23,13,43,25.60
2015,08,23,13,44,25.70
2015,08,23,13,45,25.80
2015,08,23,13,46,25.80
2015,08,23,13,47,25.80
2015,08,23,13,48,25.80
2015,08,23,13,49,25.80
2015,08,23,13,50,25.90
2015,08,23,13,51,26.00
2015,08,23,13,52,26.10
2015,08,23,13,53,26.30
2015,08,23,13,54,26.40
2015,08,23,13,55,26.50
2015,08,23,13,56,26.60
2015,08,23,13,57,26.70
2015,08,23,13,58,26.80
2015,08,23,13,59,26.80
2015,08,23,14,00,26.90
2015,08,23,14,01,26.90
2015,08,23,14,02,26.90
2015,08,23,14,03,26.80
2015,08,23,14,04,26.70
2015,08,23,14,05,26.60
2015,08,23,14,06,26.50
2015,08,23,14,07,26.40
2015,08,23,14,08,26.30
2015,08,23,14,09,26.10
2015,08,23,14,10,26.00
2015,08,23,14,11,25.90
2015,08,23,14,12,26.00
2015,08,23,14,13,26.10
2015,08,23,14,14,26.10
2015,08,23,14,15,26.20
2015,08,23,14,16,26.20
2015,08,23,14,17,26.10
2015,08,23,14,18,26.10
2015,08,23,14,19,26.10
2015,08,23,14,20,26.10
2015,08,23,14,21,26.20
2015,08,23,14,22,26.20
2015,08,23,14,23,26.30
2015,08,23,14,24,26.40
2015,08,23,14,25,26.40
2015,08,23,14,26,26.40
2015,08,23,14,27,26.50
2015,08,23,14,28,26.50
2015,08,23,14,29,26.50
2015,08,23,14,30,26.50
2015,08,23,14,31,26.60
2015,08,23,14,32,26.60
2015,08,23,14,33,26.60
2015,08,23,14,34,26.70
2015,08,23,14,35,26.70
2015,08,23,14,36,26.80
2015,08,23,14,37,26.80
2015,08,23,14,38,26.80
2015,08,23,14,39,26.90
2015,08,23,14,40,26.90
2015,08,23,14,41,27.00
2015,08,23,14,42,27.00
2015,08,23,14,43,27.10
2015,08,23,14,44,27.10
2015,08,23,14,45,27.10
2015,08,23,14,46,27.00
2015,08,23,14,47,26.90
2015,08,23,14,48,26.90
2015,08,23,14,49,26.90
2015,08,23,14,50,26.80
2015,08,23,14,51,26.80
2015,08,23,14,52,26.80
2015,08,23,14,53,26.80
2015,08,23,14,54,26.80
2015,08,23,14,55,26.80
2015,08,23,14,56,26.80
2015,08,23,14,57,26.80
2015,08,23,14,58,26.80
2015,08,23,14,59,26.80
2015,08,23,15,00,26.80
2015,08,23,15,01,26.90
2015,08,23,15,02,26.90
2015,08,23,15,03,26.90
2015,08,23,15,04,26.90
2015,08,23,15,05,27.00
2015,08,23,15,06,27.10
2015,08,23,15,07,27.20
2015,08,23,15,08,27.20
2015,08,23,15,09,27.20
2015,08,23,15,10,27.20
2015,08,23,15,11,27.10
2015,08,23,15,12,27.10
2015,08,23,15,13,27.00
2015,08,23,15,14,27.00
2015,08,23,15,15,26.90
2015,08,23,15,16,26.70
2015,08,23,15,17,26.60
2015,08,23,15,18,26.40
2015,08,23,15,19,26.30
2015,08,23,15,20,26.20
2015,08,23,15,21,26.20
2015,08,23,15,22,26.20
2015,08,23,15,23,26.20
2015,08,23,15,24,26.30
2015,08,23,15,25,26.30
2015,08,23,15,26,26.40
2015,08,23,15,27,26.40
2015,08,23,15,28,26.40
2015,08,23,15,29,26.30
2015,08,23,15,30,26.30
2015,08,23,15,31,26.30
2015,08,23,15,32,26.30
2015,08,23,15,33,26.20
2015,08,23,15,34,26.10
2015,08,23,15,35,26.00
2015,08,23,15,36,25.90
2015,08,23,15,37,25.90
2015,08,23,15,38,25.90
2015,08,23,15,39,26.00
2015,08,23,15,40,25.90
2015,08,23,15,41,25.90
2015,08,23,15,42,25.80
2015,08,23,15,43,25.80
2015,08,23,15,44,25.80
2015,08,23,15,45,25.80
2015,08,23,15,46,25.80
2015,08,23,15,47,25.80
2015,08,23,15,48,25.80
2015,08,23,15,49,25.70
2015,08,23,15,50,25.70
2015,08,23,15,51,25.70
2015,08,23,15,52,25.60
2015,08,23,15,53,25.60
2015,08,23,15,54,25.60
2015,08,23,15,55,25.60
2015,08,23,15,56,25.60
2015,08,23,15,57,25.60
2015,08,23,15,58,25.60
2015,08,23,15,59,25.60
2015,08,23,16,00,25.70
2015,08,23,16,01,25.70
2015,08,23,16,02,25.80
2015,08,23,16,03,25.80
2015,08,23,16,04,25.90
2015,08,23,16,05,26.00
2015,08,23,16,06,26.10
2015,08,23,16,07,26.20
2015,08,23,16,08,26.40
2015,08,23,16,09,26.50
2015,08,23,16,10,26.50
2015,08,23,16,11,26.50
2015,08,23,16,12,26.50
2015,08,23,16,13,26.50
2015,08,23,16,14,26.60
2015,08,23,16,15,26.70
2015,08,23,16,16,26.70
2015,08,23,16,17,26.60
2015,08,23,16,18,26.50
2015,08,23,16,19,26.40
2015,08,23,16,20,26.30
2015,08,23,16,21,26.30
2015,08,23,16,22,26.30
2015,08,23,16,23,26.20
2015,08,23,16,24,26.20
2015,08,23,16,25,26.20
2015,08,23,16,26,26.30
2015,08,23,16,27,26.30
2015,08,23,16,28,26.30
2015,08,23,16,29,26.20
2015,08,23,16,30,26.20
2015,08,23,16,31,26.00
2015,08,23,16,32,25.80
2015,08,23,16,33,25.70
2015,08,23,16,34,25.60
2015,08,23,16,35,25.50
2015,08,23,16,36,25.50
2015,08,23,16,37,25.60
2015,08,23,16,38,25.60
2015,08,23,16,39,25.70
2015,08,23,16,40,25.70
2015,08,23,16,41,25.70
2015,08,23,16,42,25.70
2015,08,23,16,43,25.70
2015,08,23,16,44,25.70
2015,08,23,16,45,25.70
2015,08,23,16,46,25.80
2015,08,23,16,47,25.80
2015,08,23,16,48,25.80
2015,08,23,16,49,25.80
2015,08,23,16,50,25.80
2015,08,23,16,51,25.70
2015,08,23,16,52,25.60
2015,08,23,16,53,25.60
2015,08,23,16,54,25.50
2015,08,23,16,55,25.40
2015,08,23,16,56,25.40
2015,08,23,16,57,25.30
2015,08,23,16,58,25.20
2015,08,23,16,59,25.20
2015,08,23,17,00,25.10
2015,08,23,17,01,25.00
2015,08,23,17,02,24.80
2015,08,23,17,03,24.60
2015,08,23,17,04,24.40
2015,08,23,17,05,24.30
2015,08,23,17,06,24.10
2015,08,23,17,07,23.90
2015,08,23,17,08,23.80
2015,08,23,17,09,23.70
2015,08,23,17,10,23.70
2015,08,23,17,11,23.60
2015,08,23,17,12,23.50
2015,08,23,17,13,23.40
2015,08,23,17,14,23.30
2015,08,23,17,15,23.10
2015,08,23,17,16,22.90
2015,08,23,17,17,22.60
2015,08,23,17,18,22.30
2015,08,23,17,19,22.00
2015,08,23,17,20,21.80